Regional Weather Roundup
Issued by NWS

Home | Current Version | Previous Version | Text Only | Print | Product List | Glossary Off
Versions: 1 2 3 4 5 6 7 8 9 10 11 12 13 14 15 16 17 18 19 20 21 22 23 24 25 26 27 28 29 30 31 32 33 34 35 36 37 38 39 40 41 42 43 44 45 46 47 48 49 50

627
ASUS43 KLSX 240707
RWRMO

WEATHER SUMMARY FOR MISSOURI
NATIONAL WEATHER SERVICE SPRINGFIELD MO
200 AM CDT THU AUG 24 2017

NOTE: "FAIR" INDICATES FEW OR NO CLOUDS BELOW 12,000 FEET WITH NO
       SIGNIFICANT WEATHER AND/OR OBSTRUCTIONS TO VISIBILITY.
       CURRENT SKY AND/OR WEATHER CONDITIONS ARE NOT AVAILABLE FOR
       CHILLICOTHE AND FARMINGTON.

MOZ001>031-035>038-043-044-053-054-240800-
...NORTHERN AND WESTERN MISSOURI...

CITY           SKY/WX    TMP DP  RH WIND       PRES   REMARKS
KANSAS CTY INT CLEAR     62  58  86 S6        30.07S
KANSAS C DTWN  CLEAR     67  62  84 NW3       30.06S
LEE`S SUMMIT   CLEAR     66  58  75 S5        30.07S
ST JOSEPH      CLEAR     58  58 100 CALM      30.06F
CHILLICOTHE      N/A     59  59 100 CALM      30.07F
KIRKSVILLE     CLEAR     55  53  93 CALM      30.08S

$$
MOZ066>068-077>081-088>096-101>105-240800-
...SOUTHWEST MISSOURI...

CITY           SKY/WX    TMP DP  RH WIND       PRES   REMARKS
SPRINGFIELD    CLEAR     61  56  83 E3        30.06F
JOPLIN         CLEAR     63  58  83 E5        30.06S
BRANSON        CLEAR     59  55  88 CALM      30.08S

$$
MOZ032>034-039>042-045>050-055>058-069>072-240800-
...CENTRAL MISSOURI...

CITY           SKY/WX    TMP DP  RH WIND       PRES   REMARKS
COLUMBIA       CLEAR     61  56  83 SE3       30.07F
JEFFERSON CITY CLEAR     59  59 100 CALM      30.06F
ROLLA          CLEAR     60  54  80 E6        30.08F
SEDALIA        CLEAR     61  60  97 CALM      30.08S
WHITEMAN AFB   PTCLDY    59  59 100 SE2       30.05F
WARRENSBURG    CLEAR     59  57  94 CALM      30.06F
OSAGE BEACH    CLEAR     57  56  96 CALM      30.08F

$$
MOZ051-052-059>065-240800-
...EAST CENTRAL MISSOURI...

CITY           SKY/WX    TMP DP  RH WIND       PRES   REMARKS
ST LOUIS INTL  CLEAR     63  56  78 CALM      30.06F
SPIRIT OF STL  PTCLDY    57  57 100 CALM      30.05F
ST CHARLES     PTCLDY    59  58  96 CALM      30.05F

$$
MOZ072>076-082>087-097>100-106>115-240800-
...SOUTH CENTRAL AND SOUTHEAST MISSOURI...

CITY           SKY/WX    TMP DP  RH WIND       PRES   REMARKS
CAPE GIRARDEAU CLEAR     56  54  93 CALM      30.04S
FARMINGTON     RAIN      57  55  94 CALM      30.08S FOG
POPLAR BLUFF   CLEAR     58  57  97 N3        30.04R
WEST PLAINS    CLEAR     59  54  83 NE3       30.08F

$$



USA.gov is the U.S. government's official web portal to all federal, state and local government web resources and services.